Showing default

ORBCOMM FM 19, 25415

Orbit data source: Space-Track

ORBCOMM FM 19, 25415 is a payload satellite owned by Orbcomm (US) in LEO that was launched on Sun, 02 Aug 1998 UTC via a PEGASUS XL/HAPS launch vehicle from the Pegasus Launch, Eastern Range Air Space (ERAS). Payloads include a variety of satellites, spacecraft, and rockets equipped with specific instruments for various scientific and technological missions. These include communications satellites like Starlink; space stations such as the ISS; scientific satellites like the Hubble; Earth observation satellites from companies like Planet Labs, Umbra, and HawkEye 360; GPS; miniature CubeSats for education and research; and military/defense satellites.

Loading next visibility...
ORBCOMM FM 19 details
Identifier
25415, 1998-046C
Orbit
LEO
Last TLE update8 hours ago
Origin
Flag of USOrbcomm (US / ORB)
ManufacturerOSC-Germantown
MissionOperational Commercial Communications
Bus & MotorMICROSTAR, Unknown motor
Mass42 kg wet, 42 kg dry
Launch date (UTC)
1998-08-02 (26 years ago)
Launch vehicle
PEGASUS XL/HAPS
Launch site
Pegasus Launch, Eastern Range Air Space (ERAS)
Object type
Payload
Rocket body
Debris
Shape & HBRCyl + 2 Pan, 4.3 m
Radar Cross Section1.484 m², Medium (>0.1 m² and < 1m²)

Expand to show TLE details & history

TLE from 8 hours ago
0 ORBCOMM FM 19
1 25415U 98046C   24361.54535234  .00004081  00000-0  13988-2 0  9995
2 25415  44.9939 275.5999 0002706 100.2005  70.2813 14.37428270379352
Epoch: 2024-12-26T13:05Z
Definitive object data (Epoch: 2024-12-26T13:05:18.442Z)
Latitude6.67296°
Longitude157.06573°
Altitude765.736 km
Speed7.474 km/s
True Right ascension05h 55m 39s
True Declination6° 38' 00"
Sunlit
Object was in full shadow at TLE epoch
Visualization TLE readout
Latitude43.39579°
Longitude91.99877°
Altitude768.554 km
Speed7.477 km/s
Apparent Right ascension04h 54m 06s
Apparent Declination7° 27' 17"
Sunlit
Object is in full shadow
Visualization observer readout
Local Sidereal Time20:30:15
Azimuth59.477° ENE
Elevation-21.308°
Doppler factor1
Orbital elements
Apogee altitude770.489 km
Perigee altitude766.621 km
Semi-major axis7,146.692 km
Eccentricity0.0002706
Inclination44.9939°
RAAN275.5999°
Arg. of periapsis100.2005°
True anomaly70.31049°
Mean anomaly70.2813°
Eccentric anomaly70.2959°
Mean motion3.59241 °/min
BSTAR0.0013988
Orbital period100.21 mins
Loading maneuver chart data...

ORBCOMM FM 19 Visibility forecast

Observer location: undefined°, undefined

Span
Click to sort rows by Start time (UTC) header in descending order
Start Az.
Max El. time (UTC)
Max El. Az.
Max El.
End time (UTC)
End Az.
10 mins2024-12-26 22:31:18.919Z244.353° WSW2024-12-26 22:36:18.919Z222.737° SW44.959°2024-12-26 22:41:18.919Z66.812° ENE
8 mins2024-12-27 00:18:18.919Z285.09° WNW2024-12-27 00:22:18.919Z7.045° NNE37.319°2024-12-27 00:26:18.919Z67.468° ENE
8 mins2024-12-27 02:04:18.919Z299.292° NW2024-12-27 02:07:18.919Z347.639° N40.447°2024-12-27 02:12:18.919Z93.719° ESE
8 mins2024-12-27 03:49:18.919Z282.84° WNW2024-12-27 03:53:18.919Z202.689° SW38.17°2024-12-27 03:57:18.919Z140.465° SSE
6 mins2024-12-27 20:09:18.919Z172.909° S2024-12-27 20:12:18.919Z132.094° SE19.053°2024-12-27 20:15:18.919Z94.964° ESE
|